Terminal Aerodrome Forecast
Issued by NWS

Home | Current Version | Previous Version | Text Only | Print | Product List | Glossary On
Versions: 1 2 3 4 5 6 7 8 9 10 11 12 13
835
FTUS45 KFGZ 301730
TAFSEZ
TAF
KSEZ 301730Z 3018/3118 VRB06KT P6SM SCT100 SCT200
     FM301900 22008KT P6SM SCT090 BKN110
      TEMPO 3020/3024 VRB20G30KT 2SM TSRA BKN090CB
     FM310300 VRB06KT P6SM BKN090=

USA.gov is the U.S. government's official web portal to all federal, state and local government web resources and services.